Black River Falls, WI

8:56 PM CDT on April 25, 2017 (GMT -0500)
Black River Falls Area

Weather History for KBCK - January, 2014

Change the Weather History Date:

Monday, January 6, 2014

  Actual Average (KCMY) Record (KCMY)
Temperature  
Mean Temperature -17 °F -  
Max Temperature -12 °F 23 °F 48 °F (2012)
Min Temperature -22 °F 4 °F -27 °F (1973)
Degree Days  
Heating Degree Days 82    
Moisture  
Dew Point -28 °F    
Average Humidity 57    
Maximum Humidity 63    
Minimum Humidity 49    
Precipitation  
Precipitation 0.00 in - - ()
Sea Level Pressure  
Sea Level Pressure 30.18 in    
Wind  
Wind Speed 11 mph (West)    
Max Wind Speed 18 mph    
Max Gust Speed 25 mph    
Visibility 9 miles    
Events      
Averages and records for this station are not official NWS values.
T = Trace of Precipitation, MM = Missing Value Source: NWS Daily Summary

Daily Weather History Graph

Daily Weather History Graph

Search for Another Location

Airport or City:

Trip Planner

Search our weather history database for the weather conditions in past years. The results will help you decide how hot, cold, wet, or windy it might be!

Date:

Astronomy

Jan. 06, 2014 Rise Set
Actual Time 7:38 AM CST 4:40 PM CST
Civil Twilight 7:05 AM CST 5:13 PM CST
Nautical Twilight 6:29 AM CST 5:49 PM CST
Astronomical Twilight 5:54 AM CST 6:24 PM CST
Moon 10:40 AM CST (1/6) 11:29 PM CST (1/6)
Length of Visible Light 10h 07m
Length of Day
9h 01m
Waxing Crescent, 35% of the Moon is Illuminated
Jan 6
Waxing Crescent
Jan 7
First Quarter
Jan 15
Full
Jan 23
Last Quarter
Jan 30
New

Hourly Weather History & Observations

Time (CST) Temp. Windchill Dew Point Humidity Pressure Visibility Wind Dir Wind Speed Gust Speed Precip Events Conditions
12:15 AM -13.2 °F -30.2 °F -23.3 °F 61% 30.18 in 10.0 mi WNW 8.1 mph - N/A   Scattered Clouds
12:35 AM -13.4 °F -29.0 °F -22.7 °F 63% 30.17 in 5.0 mi WNW 6.9 mph - N/A   Haze
12:55 AM -13.5 °F -33.0 °F -23.8 °F 60% 30.18 in 7.0 mi NW 10.4 mph 16.1 mph N/A   Overcast
1:15 AM -13.9 °F -33.5 °F -24.7 °F 58% 30.18 in 10.0 mi WNW 10.4 mph 19.6 mph N/A   Overcast
1:35 AM -14.4 °F -34.2 °F -25.2 °F 58% 30.18 in 10.0 mi WNW 10.4 mph - N/A   Overcast
1:55 AM -14.8 °F -30.8 °F -25.6 °F 58% 30.18 in 10.0 mi NW 6.9 mph - N/A   Overcast
2:15 AM -14.8 °F -35.6 °F -25.6 °F 58% 30.18 in 10.0 mi WNW 11.5 mph 17.3 mph N/A   Overcast
2:35 AM -15.7 °F -33.3 °F -26.7 °F 58% 30.18 in 10.0 mi NW 8.1 mph 19.6 mph N/A   Overcast
2:55 AM -16.1 °F -35.0 °F -26.7 °F 59% 30.19 in 10.0 mi WNW 9.2 mph 17.3 mph N/A   Mostly Cloudy
3:15 AM -16.8 °F -37.1 °F -27.4 °F 59% 30.19 in 7.0 mi WNW 10.4 mph 20.7 mph N/A   Overcast
3:35 AM -17.7 °F -38.2 °F -28.5 °F 58% 30.19 in 10.0 mi WNW 10.4 mph 19.6 mph N/A   Mostly Cloudy
3:55 AM -18.0 °F -34.7 °F -28.3 °F 60% 30.19 in 5.0 mi WNW 6.9 mph - N/A   Haze
4:15 AM -18.6 °F -40.4 °F -29.2 °F 58% 30.19 in 7.0 mi WNW 11.5 mph 17.3 mph N/A   Overcast
4:35 AM -19.3 °F -43.2 °F -30.3 °F 57% 30.20 in 10.0 mi WNW 13.8 mph 23.0 mph N/A   Overcast
4:55 AM -20.2 °F -41.3 °F -31.4 °F 56% 30.20 in 10.0 mi WNW 10.4 mph 21.9 mph N/A   Overcast
5:15 AM -21.1 °F -41.2 °F -32.4 °F 56% 30.20 in 10.0 mi WNW 9.2 mph 19.6 mph N/A   Scattered Clouds
5:35 AM -21.5 °F -42.9 °F -32.8 °F 56% 30.20 in 10.0 mi WNW 10.4 mph 17.3 mph N/A   Clear
5:55 AM -22.0 °F -42.3 °F -32.8 °F 57% 30.20 in 10.0 mi WNW 9.2 mph 16.1 mph N/A   Clear
6:15 AM -22.2 °F -44.9 °F -33.3 °F 56% 30.20 in 7.0 mi WNW 11.5 mph - N/A   Clear
6:35 AM -22.9 °F -44.7 °F -34.2 °F 56% 30.20 in 10.0 mi WNW 10.4 mph - N/A   Clear
6:55 AM -22.9 °F -42.1 °F -33.7 °F 57% 30.20 in 10.0 mi West 8.1 mph - N/A   Scattered Clouds
7:15 AM -22.9 °F -44.7 °F -32.8 °F 60% 30.20 in 5.0 mi West 10.4 mph - N/A   Haze
7:35 AM -22.5 °F -44.2 °F -33.2 °F 58% 30.20 in 10.0 mi WNW 10.4 mph 17.3 mph N/A   Scattered Clouds
7:55 AM -22.4 °F -42.8 °F -33.7 °F 56% 30.20 in 7.0 mi West 9.2 mph - N/A   Mostly Cloudy
8:15 AM -22.2 °F -39.7 °F -32.8 °F 58% 30.20 in 7.0 mi West 6.9 mph - N/A   Overcast
8:35 AM -21.6 °F -44.2 °F -32.1 °F 58% 30.20 in 5.0 mi West 11.5 mph - N/A   Haze
8:55 AM -21.1 °F -41.2 °F -31.7 °F 58% 30.21 in 5.0 mi West 9.2 mph - N/A   Haze
9:15 AM -20.2 °F -42.4 °F -31.0 °F 58% 30.21 in 3.0 mi West 11.5 mph 19.6 mph N/A   Haze
9:35 AM -19.7 °F -44.5 °F -30.8 °F 57% 30.21 in 3.0 mi West 15.0 mph 20.7 mph N/A   Haze
9:55 AM -19.3 °F -44.9 °F -31.0 °F 55% 30.21 in 7.0 mi West 16.1 mph - N/A   Overcast
10:15 AM -18.9 °F -44.4 °F -31.2 °F 54% 30.21 in 10.0 mi WNW 16.1 mph 19.6 mph N/A   Mostly Cloudy
10:35 AM -18.4 °F -43.7 °F -30.8 °F 53% 30.21 in 10.0 mi West 16.1 mph 20.7 mph N/A   Mostly Cloudy
10:55 AM -18.0 °F -44.0 °F -30.6 °F 53% 30.20 in 7.0 mi West 17.3 mph 25.3 mph N/A   Unknown
11:15 AM -17.7 °F -42.8 °F -30.3 °F 53% 30.19 in 7.0 mi West 16.1 mph 21.9 mph N/A   Overcast
11:35 AM -17.1 °F -42.8 °F -29.9 °F 52% 30.19 in 7.0 mi West 17.3 mph 24.2 mph N/A   Overcast
11:55 AM -16.2 °F -39.3 °F -29.4 °F 52% 30.18 in 7.0 mi West 13.8 mph 20.7 mph N/A   Overcast
12:15 PM -15.7 °F -35.7 °F -29.2 °F 51% 30.17 in 10.0 mi WNW 10.4 mph 18.4 mph N/A   Mostly Cloudy
12:35 PM -14.4 °F -37.0 °F -28.5 °F 49% 30.16 in 10.0 mi West 13.8 mph 19.6 mph N/A   Scattered Clouds
12:55 PM -13.9 °F -35.5 °F -27.6 °F 50% 30.16 in 10.0 mi West 12.7 mph 19.6 mph N/A   Scattered Clouds
1:15 PM -13.4 °F -38.0 °F -27.4 °F 50% 30.15 in 10.0 mi West 17.3 mph 20.7 mph N/A   Scattered Clouds
1:35 PM -13.2 °F -38.4 °F -27.0 °F 50% 30.15 in 10.0 mi West 18.4 mph 21.9 mph N/A   Scattered Clouds
1:55 PM -12.6 °F -34.7 °F -26.9 °F 49% 30.15 in 10.0 mi West 13.8 mph 19.6 mph N/A   Mostly Cloudy
2:15 PM -13.0 °F -36.8 °F -26.5 °F 51% 30.15 in 10.0 mi West 16.1 mph 21.9 mph N/A   Mostly Cloudy
2:35 PM -12.6 °F -33.9 °F -25.8 °F 52% 30.15 in 7.0 mi West 12.7 mph 19.6 mph N/A   Overcast
2:55 PM -12.5 °F -34.5 °F -25.8 °F 52% 30.15 in 10.0 mi West 13.8 mph 18.4 mph N/A   Scattered Clouds
3:15 PM -12.5 °F -34.5 °F -25.6 °F 52% 30.15 in 10.0 mi West 13.8 mph 17.3 mph N/A   Scattered Clouds
3:35 PM -12.1 °F -33.2 °F -25.6 °F 51% 30.16 in 10.0 mi West 12.7 mph 19.6 mph N/A   Scattered Clouds
3:55 PM -12.3 °F -35.8 °F -25.6 °F 52% 30.16 in 10.0 mi West 16.1 mph 24.2 mph N/A   Scattered Clouds
4:15 PM -12.6 °F -34.7 °F -26.0 °F 52% 30.16 in 10.0 mi West 13.8 mph 19.6 mph N/A   Clear
4:35 PM -13.0 °F -33.4 °F -25.8 °F 53% 30.16 in 10.0 mi West 11.5 mph 19.6 mph N/A   Clear
4:55 PM -13.9 °F -34.5 °F -26.0 °F 55% 30.16 in 10.0 mi West 11.5 mph - N/A   Scattered Clouds
5:15 PM -14.1 °F -32.6 °F -25.6 °F 56% 30.16 in 10.0 mi West 9.2 mph - N/A   Clear
5:35 PM -14.1 °F -31.3 °F -25.6 °F 56% 30.16 in 10.0 mi WSW 8.1 mph - N/A   Clear
5:55 PM -14.3 °F -31.5 °F -25.8 °F 56% 30.16 in 10.0 mi West 8.1 mph - N/A   Clear
6:15 PM -14.3 °F -33.9 °F -25.8 °F 56% 30.16 in 10.0 mi West 10.4 mph 16.1 mph N/A   Clear
6:35 PM -14.4 °F -35.2 °F -25.6 °F 57% 30.16 in 10.0 mi West 11.5 mph - N/A   Clear
6:55 PM -14.6 °F -33.2 °F -25.6 °F 58% 30.16 in 10.0 mi West 9.2 mph 16.1 mph N/A   Clear
7:15 PM -14.8 °F -34.6 °F -25.2 °F 59% 30.17 in 10.0 mi West 10.4 mph - N/A   Clear
7:35 PM -14.4 °F -35.2 °F -24.5 °F 61% 30.17 in 7.0 mi West 11.5 mph - N/A   Mostly Cloudy
7:55 PM -14.8 °F -36.6 °F -24.7 °F 61% 30.16 in 10.0 mi West 12.7 mph 17.3 mph N/A   Scattered Clouds
8:15 PM -15.5 °F -33.1 °F -25.1 °F 62% 30.16 in 10.0 mi West 8.1 mph - N/A   Clear
8:40 PM -15.3 °F -34.1 °F -25.2 °F 61% 30.16 in 10.0 mi West 9.2 mph - N/A   Clear
8:55 PM -15.7 °F -31.9 °F -25.6 °F 61% 30.16 in 10.0 mi West 6.9 mph - N/A   Clear
9:15 PM -15.7 °F -34.6 °F -25.6 °F 61% 30.15 in 10.0 mi West 9.2 mph - N/A   Clear
9:35 PM -16.1 °F -32.3 °F -25.8 °F 61% 30.16 in 10.0 mi West 6.9 mph - N/A   Clear
9:55 PM -15.9 °F -33.5 °F -25.2 °F 63% 30.15 in 10.0 mi West 8.1 mph - N/A   Clear
10:15 PM -15.9 °F -32.1 °F -25.1 °F 63% 30.15 in 10.0 mi West 6.9 mph - N/A   Clear
10:35 PM -15.5 °F -35.5 °F -24.7 °F 63% 30.15 in 10.0 mi West 10.4 mph 16.1 mph N/A   Clear
10:55 PM -15.7 °F -34.6 °F -24.9 °F 63% 30.14 in 10.0 mi West 9.2 mph - N/A   Clear
11:15 PM -15.9 °F -36.0 °F -25.1 °F 63% 30.14 in 10.0 mi West 10.4 mph - N/A   Clear
11:35 PM -15.7 °F -33.3 °F -24.9 °F 63% 30.14 in 10.0 mi West 8.1 mph - N/A   Clear
11:55 PM -16.1 °F -33.7 °F -25.2 °F 63% 30.14 in 10.0 mi West 8.1 mph - N/A   Clear